Location: Unspecified
(0.0000°N, 0.0000°E)
Time: 23:50:07
(UTC+00:00)

N. Korean satellite - Pass Details

Date: 16 January 2022
Orbit: 447 x 490 km, 97.3° (Epoch: 27 January)

Event Time Altitude Azimuth Distance (km) Brightness Sun altitude
Rises 04:35:58 0° 19° (NNE) 2,551 10.2 -21.8°
Reaches altitude 10° 04:38:04 10° 24° (NNE) 1,674 9.3 -21.3°
Maximum altitude 04:41:35 51° 101° (E) 623 7.4 -20.5°
Drops below altitude 10° 04:45:06 10° 178° (S) 1,677 9.6 -19.7°
Sets 04:47:12 0° 183° (S) 2,556 10.5 -19.2°
